Flag for U.S.A. Weather past 2 weeks in Myrtle Beach, South Carolina, U.S.A.

Now
57 °F

Clear.


Feels Like: 56 °F
Forecast: 48 / 67 °F
Wind: 7 mph from West

Location: Myrtle Beach Air Force Base

Current Time: Mar 31, 2015 at 2:45:50 AM

Latest Report: Mar 31, 2015 at 2:15 AM


Visibility: 10 mi

Pressure: 30.05 "Hg

Humidity: 72%

Dew point: 48 °F

Location of Myrtle BeachLocation

Historic Weather in Myrtle Beach — Graph

°F

Myrtle Beach temperature yesterday

Maximum temperature yesterday: 70 °F (at 4:45 PM)
Minimum temperature yesterday: 39 °F (at 12:15 AM)
Average temperature yesterday: 51 °F

Past Weeks' High & Low Weather Summary

 TemperatureHumidityPressure
High84 °F (Mar 17, 2:45 PM)94% (Mar 20, 1:35 AM)30.48 "Hg (Mar 20, 1:35 AM)
Low34 °F (Mar 29, 5:55 AM)21% (Mar 16, 12:53 PM)29.66 "Hg (Mar 27, 1:45 PM)
Average57 °F69%30.09 "Hg
* Reported Mar 16 1:15 AM — Mar 31 1:35 AM, Myrtle Beach, Weather by CustomWeather, © 2015

Note: Actual official high and low records may vary slightly from our data, if they occured in-between our weather recording intervals... More about our weather records

Advertising

Myrtle Beach weather history for previous 24 hours

 ConditionsComfort  
Time TempWeatherWind HumidityBarometerVisibility
1:35 AM
Tue, Mar 31
57 °FClear.9 mph77%30.06 "Hg10 mi
1:15 AM57 °FClear.7 mph77%30.06 "Hg10 mi
12:55 AM57 °FClear.8 mph77%30.07 "Hg10 mi
12:35 AM57 °FClear.7 mph77%30.07 "Hg10 mi
12:15 AM57 °FClear.7 mph72%30.07 "Hg10 mi
11:55 PM
Mon, Mar 30
59 °FClear.6 mph68%30.08 "Hg10 mi
11:35 PM59 °FClear.7 mph68%30.08 "Hg10 mi
10:55 PM57 °FClear.5 mph72%30.08 "Hg10 mi
9:45 PM55 °FClear.No wind72%30.06 "Hg10 mi
8:50 PM63 °FClear.No wind56%30.03 "Hg10 mi
8:45 PM57 °FClear.7 mph67%30.04 "Hg10 mi
7:50 PM63 °FSunny.No wind56%30.03 "Hg10 mi
4:45 PM70 °FPassing clouds.12 mph43%30.02 "Hg10 mi
3:53 PM66 °FScattered clouds.14 mph49%30.04 "Hg10 mi
2:53 PM66 °FSunny.16 mph46%30.07 "Hg10 mi
1:49 PM61 °FPartly sunny.12 mph52%30.09 "Hg10 mi
12:47 PM61 °FRefreshingly cool.9 mph45%30.13 "HgN/A
11:50 AM55 °FOvercast.15 mph59%30.14 "Hg10 mi
10:50 AM55 °FOvercast.9 mph59%30.18 "Hg10 mi
9:45 AM57 °FOvercast.10 mph51%30.20 "Hg10 mi
8:45 AM55 °FPartly sunny.13 mph51%30.20 "Hg10 mi
7:47 AM52 °FPassing clouds.8 mph58%30.21 "Hg10 mi
6:47 AM46 °FPassing clouds.7 mph66%30.21 "Hg10 mi
5:53 AM45 °FClear.7 mph66%30.23 "Hg10 mi
5:35 AM45 °FClear.6 mph66%30.24 "Hg10 mi
5:15 AM45 °FClear.5 mph61%30.23 "Hg10 mi
4:55 AM45 °FClear.6 mph57%30.23 "Hg10 mi
4:35 AM45 °FClear.3 mph57%30.24 "Hg10 mi
4:15 AM43 °FClear.3 mph61%30.25 "Hg10 mi
3:55 AM45 °FClear.3 mph57%30.26 "Hg10 mi
3:35 AM45 °FClear.5 mph57%30.26 "Hg10 mi
3:15 AM46 °FClear.5 mph53%30.26 "Hg10 mi
2:55 AM46 °FClear.6 mph53%30.27 "Hg10 mi
2:35 AM46 °FClear.7 mph53%30.28 "Hg10 mi
2:15 AM45 °FClear.7 mph57%30.29 "Hg10 mi
Weather by CustomWeather, © 2015

See weather overviewHow to use our weather pages